Year,Month,Day,Hour,Minute,Value (Times are PST for temperature in C)
2018,07,15,00,00,19.90
2018,07,15,00,01,19.90
2018,07,15,00,02,19.90
2018,07,15,00,03,20.00
2018,07,15,00,04,20.00
2018,07,15,00,05,20.00
2018,07,15,00,06,20.10
2018,07,15,00,07,20.30
2018,07,15,00,08,20.40
2018,07,15,00,09,20.50
2018,07,15,00,10,20.60
2018,07,15,00,11,20.60
2018,07,15,00,12,20.60
2018,07,15,00,13,20.50
2018,07,15,00,14,20.50
2018,07,15,00,15,20.40
2018,07,15,00,16,20.40
2018,07,15,00,17,20.30
2018,07,15,00,18,20.30
2018,07,15,00,19,20.20
2018,07,15,00,20,20.20
2018,07,15,00,21,20.20
2018,07,15,00,22,20.20
2018,07,15,00,23,20.20
2018,07,15,00,24,20.20
2018,07,15,00,25,20.20
2018,07,15,00,26,20.20
2018,07,15,00,27,20.30
2018,07,15,00,28,20.30
2018,07,15,00,29,20.40
2018,07,15,00,30,20.40
2018,07,15,00,31,20.40
2018,07,15,00,32,20.40
2018,07,15,00,33,20.50
2018,07,15,00,34,20.50
2018,07,15,00,35,20.50
2018,07,15,00,36,20.50
2018,07,15,00,37,20.50
2018,07,15,00,38,20.50
2018,07,15,00,39,20.50
2018,07,15,00,40,20.50
2018,07,15,00,41,20.50
2018,07,15,00,42,20.60
2018,07,15,00,43,20.60
2018,07,15,00,44,20.60
2018,07,15,00,45,20.70
2018,07,15,00,46,20.80
2018,07,15,00,47,20.80
2018,07,15,00,48,20.80
2018,07,15,00,49,20.80
2018,07,15,00,50,20.80
2018,07,15,00,51,20.80
2018,07,15,00,52,20.90
2018,07,15,00,53,21.00
2018,07,15,00,54,21.10
2018,07,15,00,55,21.30
2018,07,15,00,56,21.30
2018,07,15,00,57,21.50
2018,07,15,00,58,21.50
2018,07,15,00,59,21.60
2018,07,15,01,00,21.70
2018,07,15,01,01,21.80
2018,07,15,01,02,21.80
2018,07,15,01,03,21.80
2018,07,15,01,04,21.80
2018,07,15,01,05,21.90
2018,07,15,01,06,21.90
2018,07,15,01,07,21.80
2018,07,15,01,08,21.80
2018,07,15,01,09,21.80
2018,07,15,01,10,21.80
2018,07,15,01,11,21.80
2018,07,15,01,12,21.80
2018,07,15,01,13,21.70
2018,07,15,01,14,21.70
2018,07,15,01,15,21.70
2018,07,15,01,16,21.60
2018,07,15,01,17,21.60
2018,07,15,01,18,21.50
2018,07,15,01,19,21.50
2018,07,15,01,20,21.40
2018,07,15,01,21,21.40
2018,07,15,01,22,21.40
2018,07,15,01,23,21.30
2018,07,15,01,24,21.30
2018,07,15,01,25,21.20
2018,07,15,01,26,21.20
2018,07,15,01,27,21.10
2018,07,15,01,28,20.90
2018,07,15,01,29,20.80
2018,07,15,01,30,20.70
2018,07,15,01,31,20.50
2018,07,15,01,32,20.40
2018,07,15,01,33,20.30
2018,07,15,01,34,20.20
2018,07,15,01,35,20.10
2018,07,15,01,36,20.00
2018,07,15,01,37,19.90
2018,07,15,01,38,19.90
2018,07,15,01,39,19.80
2018,07,15,01,40,19.80
2018,07,15,01,41,19.70
2018,07,15,01,42,19.70
2018,07,15,01,43,19.70
2018,07,15,01,44,19.60
2018,07,15,01,45,19.60
2018,07,15,01,46,19.50
2018,07,15,01,47,19.50
2018,07,15,01,48,19.50
2018,07,15,01,49,19.40
2018,07,15,01,50,19.40
2018,07,15,01,51,19.40
2018,07,15,01,52,19.30
2018,07,15,01,53,19.30
2018,07,15,01,54,19.30
2018,07,15,01,55,19.20
2018,07,15,01,56,19.20
2018,07,15,01,57,19.20
2018,07,15,01,58,19.10
2018,07,15,01,59,19.10
2018,07,15,02,00,19.00
2018,07,15,02,01,19.00
2018,07,15,02,02,19.00
2018,07,15,02,03,18.90
2018,07,15,02,04,18.90
2018,07,15,02,05,18.90
2018,07,15,02,06,18.90
2018,07,15,02,07,18.80
2018,07,15,02,08,18.80
2018,07,15,02,09,18.80
2018,07,15,02,10,18.80
2018,07,15,02,11,18.70
2018,07,15,02,12,18.70
2018,07,15,02,13,18.60
2018,07,15,02,14,18.60
2018,07,15,02,15,18.50
2018,07,15,02,16,18.40
2018,07,15,02,17,18.40
2018,07,15,02,18,18.30
2018,07,15,02,19,18.30
2018,07,15,02,20,18.30
2018,07,15,02,21,18.20
2018,07,15,02,22,18.20
2018,07,15,02,23,18.20
2018,07,15,02,24,18.20
2018,07,15,02,25,18.20
2018,07,15,02,26,18.20
2018,07,15,02,27,18.10
2018,07,15,02,28,18.10
2018,07,15,02,29,18.10
2018,07,15,02,30,18.10
2018,07,15,02,31,18.10
2018,07,15,02,32,18.10
2018,07,15,02,33,18.10
2018,07,15,02,34,18.10
2018,07,15,02,35,18.10
2018,07,15,02,36,18.00
2018,07,15,02,37,18.00
2018,07,15,02,38,18.00
2018,07,15,02,39,18.00
2018,07,15,02,40,17.90
2018,07,15,02,41,17.90
2018,07,15,02,42,17.90
2018,07,15,02,43,17.90
2018,07,15,02,44,17.80
2018,07,15,02,45,17.80
2018,07,15,02,46,17.80
2018,07,15,02,47,17.80
2018,07,15,02,48,17.70
2018,07,15,02,49,17.70
2018,07,15,02,50,17.70
2018,07,15,02,51,17.70
2018,07,15,02,52,17.70
2018,07,15,02,53,17.60
2018,07,15,02,54,17.60
2018,07,15,02,55,17.60
2018,07,15,02,56,17.60
2018,07,15,02,57,17.60
2018,07,15,02,58,17.60
2018,07,15,02,59,17.60
2018,07,15,03,00,17.60
2018,07,15,03,01,17.60
2018,07,15,03,02,17.60
2018,07,15,03,03,17.60
2018,07,15,03,04,17.70
2018,07,15,03,05,17.70
2018,07,15,03,06,17.70
2018,07,15,03,07,17.80
2018,07,15,03,08,17.80
2018,07,15,03,09,17.80
2018,07,15,03,10,17.90
2018,07,15,03,11,17.90
2018,07,15,03,12,18.00
2018,07,15,03,13,18.00
2018,07,15,03,14,18.10
2018,07,15,03,15,18.10
2018,07,15,03,16,18.10
2018,07,15,03,17,18.20
2018,07,15,03,18,18.20
2018,07,15,03,19,18.20
2018,07,15,03,20,18.20
2018,07,15,03,21,18.20
2018,07,15,03,22,18.20
2018,07,15,03,23,18.20
2018,07,15,03,24,18.20
2018,07,15,03,25,18.20
2018,07,15,03,26,18.20
2018,07,15,03,27,18.10
2018,07,15,03,28,18.10
2018,07,15,03,29,18.10
2018,07,15,03,30,18.10
2018,07,15,03,31,18.10
2018,07,15,03,32,18.10
2018,07,15,03,33,18.10
2018,07,15,03,34,18.10
2018,07,15,03,35,18.10
2018,07,15,03,36,18.10
2018,07,15,03,37,18.00
2018,07,15,03,38,18.00
2018,07,15,03,39,18.00
2018,07,15,03,40,18.00
2018,07,15,03,41,18.00
2018,07,15,03,42,17.90
2018,07,15,03,43,17.90
2018,07,15,03,44,17.90
2018,07,15,03,45,17.90
2018,07,15,03,46,17.90
2018,07,15,03,47,17.90
2018,07,15,03,48,17.90
2018,07,15,03,49,17.90
2018,07,15,03,50,17.90
2018,07,15,03,51,17.80
2018,07,15,03,52,17.80
2018,07,15,03,53,17.80
2018,07,15,03,54,17.80
2018,07,15,03,55,17.80
2018,07,15,03,56,17.70
2018,07,15,03,57,17.70
2018,07,15,03,58,17.70
2018,07,15,03,59,17.60
2018,07,15,04,00,17.60
2018,07,15,04,01,17.60
2018,07,15,04,02,17.60
2018,07,15,04,03,17.50
2018,07,15,04,04,17.50
2018,07,15,04,05,17.50
2018,07,15,04,06,17.50
2018,07,15,04,07,17.40
2018,07,15,04,08,17.40
2018,07,15,04,09,17.40
2018,07,15,04,10,17.40
2018,07,15,04,11,17.30
2018,07,15,04,12,17.30
2018,07,15,04,13,17.30
2018,07,15,04,14,17.30
2018,07,15,04,15,17.20
2018,07,15,04,16,17.20
2018,07,15,04,17,17.20
2018,07,15,04,18,17.20
2018,07,15,04,19,17.20
2018,07,15,04,20,17.10
2018,07,15,04,21,17.10
2018,07,15,04,22,17.10
2018,07,15,04,23,17.10
2018,07,15,04,24,17.10
2018,07,15,04,25,17.10
2018,07,15,04,26,17.10
2018,07,15,04,27,17.10
2018,07,15,04,28,17.10
2018,07,15,04,29,17.00
2018,07,15,04,30,17.00
2018,07,15,04,31,17.00
2018,07,15,04,32,16.90
2018,07,15,04,33,16.90
2018,07,15,04,34,16.90
2018,07,15,04,35,16.90
2018,07,15,04,36,16.80
2018,07,15,04,37,16.80
2018,07,15,04,38,16.80
2018,07,15,04,39,16.80
2018,07,15,04,40,16.80
2018,07,15,04,41,16.80
2018,07,15,04,42,16.70
2018,07,15,04,43,16.70
2018,07,15,04,44,16.70
2018,07,15,04,45,16.70
2018,07,15,04,46,16.70
2018,07,15,04,47,16.70
2018,07,15,04,48,16.70
2018,07,15,04,49,16.70
2018,07,15,04,50,16.80
2018,07,15,04,51,16.90
2018,07,15,04,52,17.00
2018,07,15,04,53,17.10
2018,07,15,04,54,17.20
2018,07,15,04,55,17.20
2018,07,15,04,56,17.20
2018,07,15,04,57,17.20
2018,07,15,04,58,17.20
2018,07,15,04,59,17.20
2018,07,15,05,00,17.10
2018,07,15,05,01,17.10
2018,07,15,05,02,17.10
2018,07,15,05,03,17.10
2018,07,15,05,04,17.10
2018,07,15,05,05,17.10
2018,07,15,05,06,17.10
2018,07,15,05,07,17.00
2018,07,15,05,08,17.00
2018,07,15,05,09,17.00
2018,07,15,05,10,17.00
2018,07,15,05,11,17.00
2018,07,15,05,12,17.00
2018,07,15,05,13,17.00
2018,07,15,05,14,17.00
2018,07,15,05,15,17.00
2018,07,15,05,16,17.10
2018,07,15,05,17,17.10
2018,07,15,05,18,17.10
2018,07,15,05,19,17.10
2018,07,15,05,20,17.10
2018,07,15,05,21,17.10
2018,07,15,05,22,17.20
2018,07,15,05,23,17.20
2018,07,15,05,24,17.20
2018,07,15,05,25,17.20
2018,07,15,05,26,17.20
2018,07,15,05,27,17.20
2018,07,15,05,28,17.20
2018,07,15,05,29,17.20
2018,07,15,05,30,17.20
2018,07,15,05,31,17.20
2018,07,15,05,32,17.20
2018,07,15,05,33,17.20
2018,07,15,05,34,17.20
2018,07,15,05,35,17.20
2018,07,15,05,36,17.20
2018,07,15,05,37,17.10
2018,07,15,05,38,17.10
2018,07,15,05,39,17.10
2018,07,15,05,40,17.10
2018,07,15,05,41,17.00
2018,07,15,05,42,17.00
2018,07,15,05,43,16.90
2018,07,15,05,44,16.90
2018,07,15,05,45,16.90
2018,07,15,05,46,16.80
2018,07,15,05,47,16.80
2018,07,15,05,48,16.80
2018,07,15,05,49,16.80
2018,07,15,05,50,16.70
2018,07,15,05,51,16.70
2018,07,15,05,52,16.70
2018,07,15,05,53,16.70
2018,07,15,05,54,16.70
2018,07,15,05,55,16.60
2018,07,15,05,56,16.60
2018,07,15,05,57,16.60
2018,07,15,05,58,16.60
2018,07,15,05,59,16.50
2018,07,15,06,00,16.50
2018,07,15,06,01,16.40
2018,07,15,06,02,16.40
2018,07,15,06,03,16.40
2018,07,15,06,04,16.30
2018,07,15,06,05,16.30
2018,07,15,06,06,16.20
2018,07,15,06,07,16.20
2018,07,15,06,08,16.20
2018,07,15,06,09,16.10
2018,07,15,06,10,16.10
2018,07,15,06,11,16.00
2018,07,15,06,12,16.00
2018,07,15,06,13,15.90
2018,07,15,06,14,15.90
2018,07,15,06,15,15.90
2018,07,15,06,16,15.80
2018,07,15,06,17,15.80
2018,07,15,06,18,15.80
2018,07,15,06,19,15.70
2018,07,15,06,20,15.70
2018,07,15,06,21,15.70
2018,07,15,06,22,15.70
2018,07,15,06,23,15.70
2018,07,15,06,24,15.70
2018,07,15,06,25,15.70
2018,07,15,06,26,15.70
2018,07,15,06,27,15.70
2018,07,15,06,28,15.70
2018,07,15,06,29,15.70
2018,07,15,06,30,15.70
2018,07,15,06,31,15.70
2018,07,15,06,32,15.70
2018,07,15,06,33,15.70
2018,07,15,06,34,15.70
2018,07,15,06,35,15.80
2018,07,15,06,36,15.80
2018,07,15,06,37,15.80
2018,07,15,06,38,15.80
2018,07,15,06,39,15.90
2018,07,15,06,40,15.90
2018,07,15,06,41,16.00
2018,07,15,06,42,16.00
2018,07,15,06,43,16.10
2018,07,15,06,44,16.10
2018,07,15,06,45,16.20
2018,07,15,06,46,16.20
2018,07,15,06,47,16.20
2018,07,15,06,48,16.30
2018,07,15,06,49,16.30
2018,07,15,06,50,16.30
2018,07,15,06,51,16.40
2018,07,15,06,52,16.40
2018,07,15,06,53,16.40
2018,07,15,06,54,16.50
2018,07,15,06,55,16.50
2018,07,15,06,56,16.60
2018,07,15,06,57,16.70
2018,07,15,06,58,16.70
2018,07,15,06,59,16.80
2018,07,15,07,00,16.80
2018,07,15,07,01,16.80
2018,07,15,07,02,16.90
2018,07,15,07,03,16.90
2018,07,15,07,04,16.90
2018,07,15,07,05,17.00
2018,07,15,07,06,17.00
2018,07,15,07,07,17.10
2018,07,15,07,08,17.10
2018,07,15,07,09,17.20
2018,07,15,07,10,17.20
2018,07,15,07,11,17.30
2018,07,15,07,12,17.30
2018,07,15,07,13,17.30
2018,07,15,07,14,17.40
2018,07,15,07,15,17.40
2018,07,15,07,16,17.50
2018,07,15,07,17,17.50
2018,07,15,07,18,17.60
2018,07,15,07,19,17.60
2018,07,15,07,20,17.70
2018,07,15,07,21,17.80
2018,07,15,07,22,17.80
2018,07,15,07,23,17.90
2018,07,15,07,24,17.90
2018,07,15,07,25,18.00
2018,07,15,07,26,18.00
2018,07,15,07,27,18.10
2018,07,15,07,28,18.10
2018,07,15,07,29,18.10
2018,07,15,07,30,18.20
2018,07,15,07,31,18.20
2018,07,15,07,32,18.20
2018,07,15,07,33,18.20
2018,07,15,07,34,18.20
2018,07,15,07,35,18.30
2018,07,15,07,36,18.30
2018,07,15,07,37,18.40
2018,07,15,07,38,18.40
2018,07,15,07,39,18.50
2018,07,15,07,40,18.60
2018,07,15,07,41,18.60
2018,07,15,07,42,18.70
2018,07,15,07,43,18.80
2018,07,15,07,44,18.80
2018,07,15,07,45,18.80
2018,07,15,07,46,18.80
2018,07,15,07,47,18.90
2018,07,15,07,48,19.00
2018,07,15,07,49,19.00
2018,07,15,07,50,19.10
2018,07,15,07,51,19.10
2018,07,15,07,52,19.20
2018,07,15,07,53,19.20
2018,07,15,07,54,19.30
2018,07,15,07,55,19.30
2018,07,15,07,56,19.30
2018,07,15,07,57,19.40
2018,07,15,07,58,19.50
2018,07,15,07,59,19.50
2018,07,15,08,00,19.60
2018,07,15,08,01,19.60
2018,07,15,08,02,19.60
2018,07,15,08,03,19.70
2018,07,15,08,04,19.70
2018,07,15,08,05,19.80
2018,07,15,08,06,19.90
2018,07,15,08,07,20.00
2018,07,15,08,08,20.10
2018,07,15,08,09,20.20
2018,07,15,08,10,20.30
2018,07,15,08,11,20.30
2018,07,15,08,12,20.50
2018,07,15,08,13,20.50
2018,07,15,08,14,20.60
2018,07,15,08,15,20.70
2018,07,15,08,16,20.80
2018,07,15,08,17,20.90
2018,07,15,08,18,20.90
2018,07,15,08,19,21.00
2018,07,15,08,20,21.00
2018,07,15,08,21,21.10
2018,07,15,08,22,21.20
2018,07,15,08,23,21.20
2018,07,15,08,24,21.30
2018,07,15,08,25,21.30
2018,07,15,08,26,21.40
2018,07,15,08,27,21.40
2018,07,15,08,28,21.50
2018,07,15,08,29,21.60
2018,07,15,08,30,21.60
2018,07,15,08,31,21.70
2018,07,15,08,32,21.80
2018,07,15,08,33,21.80
2018,07,15,08,34,21.90
2018,07,15,08,35,21.90
2018,07,15,08,36,22.00
2018,07,15,08,37,22.00
2018,07,15,08,38,22.00
2018,07,15,08,39,22.00
2018,07,15,08,40,22.00
2018,07,15,08,41,22.10
2018,07,15,08,42,22.10
2018,07,15,08,43,22.10
2018,07,15,08,44,22.00
2018,07,15,08,45,22.00
2018,07,15,08,46,22.00
2018,07,15,08,47,22.00
2018,07,15,08,48,22.00
2018,07,15,08,49,22.10
2018,07,15,08,50,22.10
2018,07,15,08,51,22.20
2018,07,15,08,52,22.20
2018,07,15,08,53,22.20
2018,07,15,08,54,22.20
2018,07,15,08,55,22.20
2018,07,15,08,56,22.30
2018,07,15,08,57,22.30
2018,07,15,08,58,22.40
2018,07,15,08,59,22.40
2018,07,15,09,00,22.40
2018,07,15,09,01,22.50
2018,07,15,09,02,22.50
2018,07,15,09,03,22.60
2018,07,15,09,04,22.60
2018,07,15,09,05,22.60
2018,07,15,09,06,22.60
2018,07,15,09,07,22.70
2018,07,15,09,08,22.70
2018,07,15,09,09,22.80
2018,07,15,09,10,22.90
2018,07,15,09,11,22.90
2018,07,15,09,12,23.00
2018,07,15,09,13,23.00
2018,07,15,09,14,23.10
2018,07,15,09,15,23.10
2018,07,15,09,16,23.20
2018,07,15,09,17,23.20
2018,07,15,09,18,23.20
2018,07,15,09,19,23.20
2018,07,15,09,20,23.20
2018,07,15,09,21,23.30
2018,07,15,09,22,23.30
2018,07,15,09,23,23.30
2018,07,15,09,24,23.30
2018,07,15,09,25,23.30
2018,07,15,09,26,23.30
2018,07,15,09,27,23.30
2018,07,15,09,28,23.30
2018,07,15,09,29,23.30
2018,07,15,09,30,23.40
2018,07,15,09,31,23.40
2018,07,15,09,32,23.40
2018,07,15,09,33,23.40
2018,07,15,09,34,23.40
2018,07,15,09,35,23.40
2018,07,15,09,36,23.40
2018,07,15,09,37,23.50
2018,07,15,09,38,23.50
2018,07,15,09,39,23.50
2018,07,15,09,40,23.60
2018,07,15,09,41,23.60
2018,07,15,09,42,23.60
2018,07,15,09,43,23.60
2018,07,15,09,44,23.70
2018,07,15,09,45,23.70
2018,07,15,09,46,23.70
2018,07,15,09,47,23.80
2018,07,15,09,48,23.80
2018,07,15,09,49,23.80
2018,07,15,09,50,23.80
2018,07,15,09,51,23.80
2018,07,15,09,52,23.80
2018,07,15,09,53,23.80
2018,07,15,09,54,23.80
2018,07,15,09,55,23.80
2018,07,15,09,56,23.80
2018,07,15,09,57,23.80
2018,07,15,09,58,23.90
2018,07,15,09,59,23.80
2018,07,15,10,00,23.90
2018,07,15,10,01,23.90
2018,07,15,10,02,23.90
2018,07,15,10,03,23.90
2018,07,15,10,04,23.90
2018,07,15,10,05,24.00
2018,07,15,10,06,24.00
2018,07,15,10,07,24.10
2018,07,15,10,08,24.10
2018,07,15,10,09,24.10
2018,07,15,10,10,24.10
2018,07,15,10,11,24.10
2018,07,15,10,12,24.10
2018,07,15,10,13,24.20
2018,07,15,10,14,24.20
2018,07,15,10,15,24.20
2018,07,15,10,16,24.20
2018,07,15,10,17,24.20
2018,07,15,10,18,24.30
2018,07,15,10,19,24.30
2018,07,15,10,20,24.30
2018,07,15,10,21,24.40
2018,07,15,10,22,24.40
2018,07,15,10,23,24.50
2018,07,15,10,24,24.50
2018,07,15,10,25,24.60
2018,07,15,10,26,24.60
2018,07,15,10,27,24.60
2018,07,15,10,28,24.70
2018,07,15,10,29,24.70
2018,07,15,10,30,24.80
2018,07,15,10,31,24.80
2018,07,15,10,32,24.80
2018,07,15,10,33,24.80
2018,07,15,10,34,24.80
2018,07,15,10,35,24.70
2018,07,15,10,36,24.70
2018,07,15,10,37,24.70
2018,07,15,10,38,24.70
2018,07,15,10,39,24.60
2018,07,15,10,40,24.60
2018,07,15,10,41,24.60
2018,07,15,10,42,24.60
2018,07,15,10,43,24.50
2018,07,15,10,44,24.40
2018,07,15,10,45,24.50
2018,07,15,10,46,24.50
2018,07,15,10,47,24.60
2018,07,15,10,48,24.70
2018,07,15,10,49,24.70
2018,07,15,10,50,24.80
2018,07,15,10,51,24.90
2018,07,15,10,52,25.00
2018,07,15,10,53,25.00
2018,07,15,10,54,24.90
2018,07,15,10,55,24.80
2018,07,15,10,56,24.70
2018,07,15,10,57,24.60
2018,07,15,10,58,24.50
2018,07,15,10,59,24.40
2018,07,15,11,00,24.30
2018,07,15,11,01,24.40
2018,07,15,11,02,24.40
2018,07,15,11,03,24.50
2018,07,15,11,04,24.60
2018,07,15,11,05,24.60
2018,07,15,11,06,24.60
2018,07,15,11,07,24.70
2018,07,15,11,08,24.70
2018,07,15,11,09,24.70
2018,07,15,11,10,24.70
2018,07,15,11,11,24.80
2018,07,15,11,12,24.80
2018,07,15,11,13,24.90
2018,07,15,11,14,25.00
2018,07,15,11,15,25.00
2018,07,15,11,16,25.10
2018,07,15,11,17,25.20
2018,07,15,11,18,25.20
2018,07,15,11,19,25.00
2018,07,15,11,20,24.70
2018,07,15,11,21,24.40
2018,07,15,11,22,24.10
2018,07,15,11,23,23.90
2018,07,15,11,24,23.70
2018,07,15,11,25,23.60
2018,07,15,11,26,23.50
2018,07,15,11,27,23.40
2018,07,15,11,28,23.40
2018,07,15,11,29,23.40
2018,07,15,11,30,23.40
2018,07,15,11,31,23.40
2018,07,15,11,32,23.40
2018,07,15,11,33,23.40
2018,07,15,11,34,23.40
2018,07,15,11,35,23.40
2018,07,15,11,36,23.40
2018,07,15,11,37,23.50
2018,07,15,11,38,23.60
2018,07,15,11,39,23.70
2018,07,15,11,40,23.80
2018,07,15,11,41,23.80
2018,07,15,11,42,23.80
2018,07,15,11,43,23.80
2018,07,15,11,44,23.80
2018,07,15,11,45,23.80
2018,07,15,11,46,23.80
2018,07,15,11,47,23.70
2018,07,15,11,48,23.70
2018,07,15,11,49,23.70
2018,07,15,11,50,23.70
2018,07,15,11,51,23.80
2018,07,15,11,52,23.80
2018,07,15,11,53,23.90
2018,07,15,11,54,24.00
2018,07,15,11,55,24.10
2018,07,15,11,56,24.20
2018,07,15,11,57,24.30
2018,07,15,11,58,24.50
2018,07,15,11,59,24.60
2018,07,15,12,00,24.90
2018,07,15,12,01,25.10
2018,07,15,12,02,25.20
2018,07,15,12,03,25.30
2018,07,15,12,04,25.40
2018,07,15,12,05,25.50
2018,07,15,12,06,25.60
2018,07,15,12,07,25.70
2018,07,15,12,08,25.80
2018,07,15,12,09,25.90
2018,07,15,12,10,26.00
2018,07,15,12,11,26.20
2018,07,15,12,12,26.30
2018,07,15,12,13,26.40
2018,07,15,12,14,26.50
2018,07,15,12,15,26.60
2018,07,15,12,16,26.70
2018,07,15,12,17,26.70
2018,07,15,12,18,26.70
2018,07,15,12,19,26.70
2018,07,15,12,20,26.60
2018,07,15,12,21,26.70
2018,07,15,12,22,26.70
2018,07,15,12,23,26.80
2018,07,15,12,24,26.80
2018,07,15,12,25,26.90
2018,07,15,12,26,27.00
2018,07,15,12,27,27.10
2018,07,15,12,28,27.20
2018,07,15,12,29,27.20
2018,07,15,12,30,27.20
2018,07,15,12,31,27.20
2018,07,15,12,32,27.10
2018,07,15,12,33,26.80
2018,07,15,12,34,26.50
2018,07,15,12,35,26.40
2018,07,15,12,36,26.30
2018,07,15,12,37,26.10
2018,07,15,12,38,26.00
2018,07,15,12,39,25.80
2018,07,15,12,40,25.70
2018,07,15,12,41,25.50
2018,07,15,12,42,25.30
2018,07,15,12,43,25.20
2018,07,15,12,44,25.20
2018,07,15,12,45,25.20
2018,07,15,12,46,25.20
2018,07,15,12,47,25.30
2018,07,15,12,48,25.40
2018,07,15,12,49,25.60
2018,07,15,12,50,25.80
2018,07,15,12,51,26.00
2018,07,15,12,52,26.20
2018,07,15,12,53,26.40
2018,07,15,12,54,26.50
2018,07,15,12,55,26.60
2018,07,15,12,56,26.70
2018,07,15,12,57,26.80
2018,07,15,12,58,26.90
2018,07,15,12,59,27.00
2018,07,15,13,00,27.00
2018,07,15,13,01,27.10
2018,07,15,13,02,27.20
2018,07,15,13,03,27.30
2018,07,15,13,04,27.30
2018,07,15,13,05,27.30
2018,07,15,13,06,27.30
2018,07,15,13,07,27.40
2018,07,15,13,08,27.40
2018,07,15,13,09,27.50
2018,07,15,13,10,27.60
2018,07,15,13,11,27.60
2018,07,15,13,12,27.70
2018,07,15,13,13,27.80
2018,07,15,13,14,27.80
2018,07,15,13,15,27.90
2018,07,15,13,16,28.00
2018,07,15,13,17,28.10
2018,07,15,13,18,28.20
2018,07,15,13,19,28.20
2018,07,15,13,20,28.20
2018,07,15,13,21,28.30
2018,07,15,13,22,28.30
2018,07,15,13,23,28.30
2018,07,15,13,24,28.40
2018,07,15,13,25,28.40
2018,07,15,13,26,28.40
2018,07,15,13,27,28.40
2018,07,15,13,28,28.40
2018,07,15,13,29,28.40
2018,07,15,13,30,28.40
2018,07,15,13,31,28.40
2018,07,15,13,32,28.50
2018,07,15,13,33,28.50
2018,07,15,13,34,28.60
2018,07,15,13,35,28.60
2018,07,15,13,36,28.60
2018,07,15,13,37,28.60
2018,07,15,13,38,28.50
2018,07,15,13,39,28.40
2018,07,15,13,40,28.30
2018,07,15,13,41,28.20
2018,07,15,13,42,28.20
2018,07,15,13,43,28.30
2018,07,15,13,44,28.30
2018,07,15,13,45,28.30
2018,07,15,13,46,28.40
2018,07,15,13,47,28.40
2018,07,15,13,48,28.30
2018,07,15,13,49,28.20
2018,07,15,13,50,28.20
2018,07,15,13,51,28.20
2018,07,15,13,52,28.30
2018,07,15,13,53,28.30
2018,07,15,13,54,28.30
2018,07,15,13,55,28.30
2018,07,15,13,56,28.30
2018,07,15,13,57,28.30
2018,07,15,13,58,28.30
2018,07,15,13,59,28.30
2018,07,15,14,00,28.30
2018,07,15,14,01,28.30
2018,07,15,14,02,28.30
2018,07,15,14,03,28.30
2018,07,15,14,04,28.30
2018,07,15,14,05,28.20
2018,07,15,14,06,28.20
2018,07,15,14,07,28.20
2018,07,15,14,08,28.30
2018,07,15,14,09,28.30
2018,07,15,14,10,28.30
2018,07,15,14,11,28.40
2018,07,15,14,12,28.40
2018,07,15,14,13,28.30
2018,07,15,14,14,28.20
2018,07,15,14,15,28.00
2018,07,15,14,16,27.90
2018,07,15,14,17,27.90
2018,07,15,14,18,27.80
2018,07,15,14,19,27.80
2018,07,15,14,20,27.70
2018,07,15,14,21,27.70
2018,07,15,14,22,27.70
2018,07,15,14,23,27.70
2018,07,15,14,24,27.70
2018,07,15,14,25,27.80
2018,07,15,14,26,27.80
2018,07,15,14,27,27.90
2018,07,15,14,28,27.90
2018,07,15,14,29,27.80
2018,07,15,14,30,27.80
2018,07,15,14,31,27.80
2018,07,15,14,32,27.90
2018,07,15,14,33,28.00
2018,07,15,14,34,28.00
2018,07,15,14,35,28.00
2018,07,15,14,36,28.00
2018,07,15,14,37,28.00
2018,07,15,14,38,28.10
2018,07,15,14,39,28.20
2018,07,15,14,40,28.40
2018,07,15,14,41,28.50
2018,07,15,14,42,28.70
2018,07,15,14,43,28.80
2018,07,15,14,44,28.90
2018,07,15,14,45,29.00
2018,07,15,14,46,29.00
2018,07,15,14,47,29.10
2018,07,15,14,48,29.10
2018,07,15,14,49,29.10
2018,07,15,14,50,29.00
2018,07,15,14,51,28.90
2018,07,15,14,52,28.80
2018,07,15,14,53,28.90
2018,07,15,14,54,28.90
2018,07,15,14,55,28.90
2018,07,15,14,56,28.80
2018,07,15,14,57,28.80
2018,07,15,14,58,28.80
2018,07,15,14,59,28.90
2018,07,15,15,00,29.00
2018,07,15,15,01,29.10
2018,07,15,15,02,29.10
2018,07,15,15,03,29.10
2018,07,15,15,04,29.10
2018,07,15,15,05,29.10
2018,07,15,15,06,29.10
2018,07,15,15,07,29.20
2018,07,15,15,08,29.20
2018,07,15,15,09,29.30
2018,07,15,15,10,29.40
2018,07,15,15,11,29.40
2018,07,15,15,12,29.50
2018,07,15,15,13,29.60
2018,07,15,15,14,29.60
2018,07,15,15,15,29.50
2018,07,15,15,16,29.50
2018,07,15,15,17,29.60
2018,07,15,15,18,29.60
2018,07,15,15,19,29.60
2018,07,15,15,20,29.70
2018,07,15,15,21,29.80
2018,07,15,15,22,29.80
2018,07,15,15,23,29.80
2018,07,15,15,24,29.90
2018,07,15,15,25,29.90
2018,07,15,15,26,29.90
2018,07,15,15,27,29.70
2018,07,15,15,28,29.70
2018,07,15,15,29,29.60
2018,07,15,15,30,29.70
2018,07,15,15,31,29.70
2018,07,15,15,32,29.70
2018,07,15,15,33,29.80
2018,07,15,15,34,29.90
2018,07,15,15,35,29.90
2018,07,15,15,36,30.00
2018,07,15,15,37,30.10
2018,07,15,15,38,30.10
2018,07,15,15,39,30.20
2018,07,15,15,40,30.20
2018,07,15,15,41,30.30
2018,07,15,15,42,30.30
2018,07,15,15,43,30.40
2018,07,15,15,44,30.40
2018,07,15,15,45,30.40
2018,07,15,15,46,30.40
2018,07,15,15,47,30.50
2018,07,15,15,48,30.50
2018,07,15,15,49,30.50
2018,07,15,15,50,30.50
2018,07,15,15,51,30.40
2018,07,15,15,52,30.30
2018,07,15,15,53,30.20
2018,07,15,15,54,30.00
2018,07,15,15,55,29.90
2018,07,15,15,56,29.80
2018,07,15,15,57,29.80
2018,07,15,15,58,29.70
2018,07,15,15,59,29.70
2018,07,15,16,00,29.70
2018,07,15,16,01,29.70
2018,07,15,16,02,29.70
2018,07,15,16,03,29.70
2018,07,15,16,04,29.80
2018,07,15,16,05,29.90
2018,07,15,16,06,30.00
2018,07,15,16,07,30.00
2018,07,15,16,08,29.90
2018,07,15,16,09,29.60
2018,07,15,16,10,29.30
2018,07,15,16,11,29.10
2018,07,15,16,12,28.90
2018,07,15,16,13,28.70
2018,07,15,16,14,28.60
2018,07,15,16,15,28.50
2018,07,15,16,16,28.40
2018,07,15,16,17,28.20
2018,07,15,16,18,28.10
2018,07,15,16,19,28.10
2018,07,15,16,20,28.10
2018,07,15,16,21,28.10
2018,07,15,16,22,28.20
2018,07,15,16,23,28.30
2018,07,15,16,24,28.30
2018,07,15,16,25,28.20
2018,07,15,16,26,28.20
2018,07,15,16,27,28.20
2018,07,15,16,28,28.30
2018,07,15,16,29,28.30
2018,07,15,16,30,28.40
2018,07,15,16,31,28.30
2018,07,15,16,32,28.20
2018,07,15,16,33,28.00
2018,07,15,16,34,27.80
2018,07,15,16,35,27.60
2018,07,15,16,36,27.50
2018,07,15,16,37,27.40
2018,07,15,16,38,27.30
2018,07,15,16,39,27.20
2018,07,15,16,40,27.20
2018,07,15,16,41,27.20
2018,07,15,16,42,27.10
2018,07,15,16,43,27.00
2018,07,15,16,44,26.90
2018,07,15,16,45,26.80
2018,07,15,16,46,26.70
2018,07,15,16,47,26.60
2018,07,15,16,48,26.50
2018,07,15,16,49,26.40
2018,07,15,16,50,26.40
2018,07,15,16,51,26.40
2018,07,15,16,52,26.40
2018,07,15,16,53,26.40
2018,07,15,16,54,26.50
2018,07,15,16,55,26.60
2018,07,15,16,56,26.60
2018,07,15,16,57,26.60
2018,07,15,16,58,26.70
2018,07,15,16,59,26.70
2018,07,15,17,00,26.80
2018,07,15,17,01,26.90
2018,07,15,17,02,26.90
2018,07,15,17,03,26.90
2018,07,15,17,04,26.90
2018,07,15,17,05,27.00
2018,07,15,17,06,27.10
2018,07,15,17,07,27.10
2018,07,15,17,08,27.00
2018,07,15,17,09,27.00
2018,07,15,17,10,27.10
2018,07,15,17,11,27.10
2018,07,15,17,12,27.00
2018,07,15,17,13,27.00
2018,07,15,17,14,26.90
2018,07,15,17,15,26.80
2018,07,15,17,16,26.80
2018,07,15,17,17,26.70
2018,07,15,17,18,26.60
2018,07,15,17,19,26.60